TimeEST,TemperatureF,Dew PointF,Humidity,Sea Level PressureIn,VisibilityMPH,Wind Direction,Wind SpeedMPH,Gust SpeedMPH,PrecipitationIn,Events,Conditions,WindDirDegrees,DateUTC
12:14 AM,31.8,31.6,99,29.79,7.0,Calm,Calm,-,N/A,,Overcast,0,2012-12-19 05:14:00
12:35 AM,32.0,31.8,99,29.79,7.0,Calm,Calm,-,N/A,,Overcast,0,2012-12-19 05:35:00
12:54 AM,32.0,32.0,100,29.80,4.0,Calm,Calm,-,N/A,Rain,Light Rain,0,2012-12-19 05:54:00
1:15 AM,32.0,32.0,100,29.80,10.0,SSE,3.5,-,N/A,,Overcast,160,2012-12-19 06:15:00
1:35 AM,31.8,31.5,99,29.81,7.0,Calm,Calm,-,N/A,,Mostly Cloudy,0,2012-12-19 06:35:00
1:54 AM,30.6,30.2,99,29.81,5.0,Calm,Calm,-,N/A,,Scattered Clouds,0,2012-12-19 06:54:00
2:15 AM,29.3,29.1,99,29.82,7.0,Calm,Calm,-,N/A,,Scattered Clouds,0,2012-12-19 07:15:00
2:34 AM,29.3,29.1,99,29.83,5.0,Calm,Calm,-,N/A,,Scattered Clouds,0,2012-12-19 07:34:00
2:55 AM,29.7,29.5,99,29.84,7.0,Calm,Calm,-,N/A,,Mostly Cloudy,0,2012-12-19 07:55:00
3:15 AM,30.4,30.2,99,29.84,7.0,Calm,Calm,-,N/A,,Overcast,0,2012-12-19 08:15:00
3:35 AM,30.0,29.8,99,29.84,5.0,SSE,3.5,-,N/A,,Mostly Cloudy,150,2012-12-19 08:35:00
3:55 AM,30.2,30.0,99,29.85,7.0,Calm,Calm,-,N/A,,Mostly Cloudy,0,2012-12-19 08:55:00
4:14 AM,30.0,29.8,99,29.86,7.0,Calm,Calm,-,N/A,,Overcast,0,2012-12-19 09:14:00
4:35 AM,30.2,30.0,99,29.87,7.0,Calm,Calm,-,N/A,,Overcast,0,2012-12-19 09:35:00
4:55 AM,30.6,30.4,99,29.88,10.0,Calm,Calm,-,N/A,,Overcast,0,2012-12-19 09:55:00
5:15 AM,30.7,30.6,99,29.89,10.0,Calm,Calm,-,N/A,,Overcast,0,2012-12-19 10:15:00
5:35 AM,30.9,30.7,99,29.89,7.0,Calm,Calm,-,N/A,,Overcast,0,2012-12-19 10:35:00
5:55 AM,31.5,31.1,99,29.90,10.0,Calm,Calm,-,N/A,,Overcast,0,2012-12-19 10:55:00
6:15 AM,31.3,30.9,99,29.90,10.0,Calm,Calm,-,N/A,,Overcast,0,2012-12-19 11:15:00
6:34 AM,31.1,30.9,99,29.90,7.0,Calm,Calm,-,N/A,,Overcast,0,2012-12-19 11:34:00
6:55 AM,30.7,30.6,99,29.91,10.0,Calm,Calm,-,N/A,,Overcast,0,2012-12-19 11:55:00
7:14 AM,30.9,30.6,99,29.92,7.0,Calm,Calm,-,N/A,,Overcast,0,2012-12-19 12:14:00
7:35 AM,31.1,30.9,99,29.92,10.0,Calm,Calm,-,N/A,,Overcast,0,2012-12-19 12:35:00
7:54 AM,31.6,31.1,98,29.92,10.0,Calm,Calm,-,N/A,,Overcast,0,2012-12-19 12:54:00
8:15 AM,31.1,30.4,97,29.93,7.0,Calm,Calm,-,N/A,,Overcast,0,2012-12-19 13:15:00
8:35 AM,31.1,30.7,99,29.94,7.0,Calm,Calm,-,N/A,,Overcast,0,2012-12-19 13:35:00
8:55 AM,31.5,30.9,98,29.94,5.0,Calm,Calm,-,N/A,,Overcast,0,2012-12-19 13:55:00
9:15 AM,31.8,31.5,99,29.95,5.0,Calm,Calm,-,N/A,,Overcast,0,2012-12-19 14:15:00
9:40 AM,32.0,32.0,100,29.96,7.0,Calm,Calm,-,N/A,,Overcast,0,2012-12-19 14:40:00
9:55 AM,32.4,32.0,99,29.97,7.0,ESE,3.5,-,N/A,,Mostly Cloudy,110,2012-12-19 14:55:00
10:15 AM,33.1,32.2,96,29.99,7.0,Calm,Calm,-,N/A,,Mostly Cloudy,0,2012-12-19 15:15:00
10:35 AM,34.2,32.5,94,29.99,10.0,Calm,Calm,-,N/A,,Mostly Cloudy,0,2012-12-19 15:35:00
10:55 AM,36.5,32.4,85,30.00,10.0,SW,3.5,-,N/A,,Scattered Clouds,230,2012-12-19 15:55:00
11:15 AM,37.0,32.5,84,30.01,10.0,WSW,5.8,-,N/A,,Overcast,250,2012-12-19 16:15:00
11:35 AM,37.6,32.4,81,30.02,10.0,WSW,8.1,-,N/A,,Overcast,240,2012-12-19 16:35:00
11:55 AM,39.2,32.2,76,30.02,10.0,WSW,10.4,-,N/A,,Overcast,250,2012-12-19 16:55:00
12:15 PM,39.4,32.2,75,30.02,10.0,West,8.1,-,N/A,,Mostly Cloudy,260,2012-12-19 17:15:00
12:35 PM,37.9,31.6,78,30.02,10.0,WSW,6.9,-,N/A,,Mostly Cloudy,250,2012-12-19 17:35:00
12:55 PM,38.3,31.3,76,30.02,10.0,WSW,8.1,-,N/A,,Scattered Clouds,240,2012-12-19 17:55:00
1:15 PM,38.3,30.4,73,30.02,10.0,SW,6.9,-,N/A,,Mostly Cloudy,230,2012-12-19 18:15:00
1:35 PM,38.1,30.7,75,30.02,10.0,SW,8.1,-,N/A,,Overcast,230,2012-12-19 18:35:00
1:55 PM,38.1,31.5,77,30.03,10.0,SW,6.9,-,N/A,,Overcast,230,2012-12-19 18:55:00
2:15 PM,37.9,31.1,76,30.03,10.0,SW,6.9,-,N/A,,Overcast,230,2012-12-19 19:15:00
2:35 PM,37.6,30.6,76,30.04,10.0,SW,5.8,-,N/A,,Overcast,230,2012-12-19 19:35:00
2:54 PM,37.8,30.6,75,30.04,10.0,SW,4.6,-,N/A,,Overcast,220,2012-12-19 19:54:00
3:15 PM,38.3,30.4,73,30.05,10.0,SW,4.6,-,N/A,,Overcast,230,2012-12-19 20:15:00
3:35 PM,38.3,31.3,76,30.05,10.0,WSW,4.6,-,N/A,,Overcast,240,2012-12-19 20:35:00
3:55 PM,37.9,31.3,77,30.05,10.0,SW,6.9,-,N/A,,Overcast,230,2012-12-19 20:55:00
4:15 PM,37.6,31.1,77,30.05,10.0,WSW,6.9,-,N/A,,Overcast,250,2012-12-19 21:15:00
4:35 PM,36.7,30.7,79,30.06,10.0,WSW,6.9,-,N/A,,Overcast,240,2012-12-19 21:35:00
4:55 PM,36.0,30.2,80,30.05,10.0,Calm,Calm,-,N/A,,Overcast,0,2012-12-19 21:55:00
5:15 PM,35.6,30.0,80,30.05,10.0,Calm,Calm,-,N/A,,Overcast,0,2012-12-19 22:15:00
5:35 PM,33.6,29.8,86,30.06,10.0,Calm,Calm,-,N/A,,Scattered Clouds,0,2012-12-19 22:35:00
5:55 PM,31.6,29.8,93,30.07,10.0,SW,3.5,-,N/A,,Clear,220,2012-12-19 22:55:00
6:14 PM,30.9,30.0,96,30.09,10.0,Calm,Calm,-,N/A,,Scattered Clouds,0,2012-12-19 23:14:00
6:35 PM,31.1,30.2,96,30.10,10.0,Calm,Calm,-,N/A,,Mostly Cloudy,0,2012-12-19 23:35:00
6:54 PM,32.9,31.6,95,30.10,10.0,SW,3.5,-,N/A,,Overcast,220,2012-12-19 23:54:00
7:14 PM,34.0,31.1,89,30.11,10.0,WSW,3.5,-,N/A,,Overcast,250,2012-12-20 00:14:00
7:34 PM,34.7,31.1,87,30.12,10.0,SW,3.5,-,N/A,,Overcast,220,2012-12-20 00:34:00
7:54 PM,34.3,30.7,87,30.12,10.0,SSW,3.5,-,N/A,,Overcast,200,2012-12-20 00:54:00
8:15 PM,34.3,30.7,87,30.12,10.0,Calm,Calm,-,N/A,,Overcast,0,2012-12-20 01:15:00
8:34 PM,34.0,31.1,89,30.11,10.0,Calm,Calm,-,N/A,,Overcast,0,2012-12-20 01:34:00
8:55 PM,34.2,30.9,88,30.10,10.0,Calm,Calm,-,N/A,,Overcast,0,2012-12-20 01:55:00
9:13 PM,34.2,30.6,87,30.09,10.0,Calm,Calm,-,N/A,,Overcast,0,2012-12-20 02:13:00
9:35 PM,34.2,29.8,84,30.09,10.0,SE,3.5,-,N/A,,Overcast,140,2012-12-20 02:35:00
9:55 PM,34.5,29.1,81,30.09,10.0,SE,4.6,-,N/A,,Overcast,140,2012-12-20 02:55:00
10:14 PM,34.2,29.1,82,30.09,10.0,SSE,4.6,-,N/A,,Overcast,150,2012-12-20 03:14:00
10:35 PM,34.2,28.6,80,30.09,10.0,Calm,Calm,-,N/A,,Overcast,0,2012-12-20 03:35:00
10:55 PM,34.0,28.2,79,30.09,10.0,Calm,Calm,-,N/A,,Overcast,0,2012-12-20 03:55:00
11:14 PM,32.5,28.9,87,30.09,10.0,ESE,3.5,-,N/A,,Overcast,120,2012-12-20 04:14:00
11:35 PM,33.8,28.2,80,30.09,10.0,Calm,Calm,-,N/A,,Overcast,0,2012-12-20 04:35:00
11:55 PM,33.8,28.4,81,30.09,10.0,Calm,Calm,-,N/A,,Overcast,0,2012-12-20 04:55:00